Location: Bédeille
(43.0872°N, 1.1041°E)
Time: 02:10:59
(UTC+00:00)

PAYLOAD B - Pass Details

Date: 03 February 2023
Orbit: 849 x 870 km, 99.1° (Epoch: 27 March)

Event Time Altitude Azimuth Distance (km) Brightness Sun altitude
Rises 18:45:20 0° 170° (S) 3,417 7.3 -17.6°
Reaches altitude 10° 18:47:43 10° 172° (S) 2,482 6.6 -18.0°
Maximum altitude 18:53:12 72° 256° (WSW) 900 4.5 -19.0°
Drops below altitude 10° 18:58:44 10° 342° (NNW) 2,488 6.8 -20.0°
Sets 19:01:07 0° 344° (NNW) 3,426 7.5 -20.5°
